Regional Weather Roundup
Issued by NWS Grand Forks, ND

Home | Current Version | Previous Version | Graphics & Text | Print | Product List | Glossary On
Versions: 1 2 3 4 5 6 7 8 9 10 11 12 13 14 15 16 17 18 19 20 21 22 23 24 25 26 27 28 29 30 31 32 33 34 35 36 37 38 39 40 41 42 43 44 45 46 47 48 49 50
000
ASUS43 KFGF 290110
RWRFGF
PRAIRIE TO PINES  WEATHER ROUNDUP
NATIONAL WEATHER SERVICE EASTERN NORTH DAKOTA/GRAND FORKS ND
700 PM CST SUN DEC 28 2014

 **SATELLITE DATA USED TO AUGMENT SKY COVER AT AUTOMATED STATIONS**
 *****  WEATHER ACROSS EASTERN NORTH DAKOTA  *****

CITY           SKY/WX    TMP DP  RH WIND       PRES   REMARKS
GRAND FORKS    CLEAR     -8 -12  83 N5        30.44R WCI -19
GRAND FRKS AFB CLEAR     -6 -10  83 N5        30.44R WCI -18
GRAND FRKS NWS   N/A     -4 N/A N/A N5          N/A  WCI -15
DEVILS LAKE    PTCLDY    -6 -15  65 CALM      30.36R
FARGO          CLEAR     -1  -8  72 N13       30.40R WCI -19
WAHPETON ARPT  CLEAR      3  -2  78 N13G18    30.36R WCI -14
$$

 ***** WEATHER ACROSS CENTRAL AND WESTERN NORTH DAKOTA  *****

CITY           SKY/WX    TMP DP  RH WIND       PRES   REMARKS
BISMARCK       CLOUDY     4  -1  80 NE12      30.33R WCI -12
MINOT          PTCLDY    -4  -9  79 NW9       30.37R WCI -20
JAMESTOWN      CLOUDY     0  -6  76 N10       30.34R WCI -16
MINOT AFB      PTCLDY    -6 -10  84 N7        30.38R WCI -21
GARRISON         N/A      2  -2  83 NE9       30.32R WCI -13
WILLISTON      CLOUDY     5  -2  72 N14       30.34R WCI -12
DICKINSON      LGT SNOW  10   5  80 NE15      30.19R WCI  -7
HETTINGER      LGT SNOW  14  10  84 E13       30.15R FOG     WCI   0
$$

 *****  OTHER AIRPORT OBSERVATIONS IN OUR AREA  *****

CITY           SKY/WX    TMP DP  RH WIND       PRES   REMARKS
WALHALLA         N/A     -6 -11  77 NW6       30.45R WCI -18
GRAFTON AIRPOR NOT AVBL
VALLEY CITY AR FAIR       0  -4  85 NE8       30.35R WCI -15
CANDO          FAIR      -8 -11  84 N5        30.39R WCI -19
CAVALIER APRT  FAIR      -9 -15  77 NW5       30.45R WCI -21
GWINNER        CLEAR      3  -2  78 NE12      30.35R WCI -13
ROLLA          FAIR      -8 -11  84 N10       30.36R WCI -26
 ***** THE ABOVE OBSERVATIONS ARE NON NWS ARE NOT QUALITY
       CONTROLLED AND MAY MIS-REPORT RAIN FOR SNOW...
$$

  *****  WEATHER ACROSS NORTHERN MINNESOTA  *****

CITY           SKY/WX    TMP DP  RH WIND       PRES   REMARKS
FLAG ISLAND    CLEAR     -6 -13  71 NW14      30.35R WCI -26
WARROAD        CLEAR     -6 -11  77 NW8       30.36R WCI -21
ROSEAU         FAIR      -6 -11  77 NW9       30.38R WCI -22
HALLOCK        CLEAR     -6 -13  71 N8        30.43R WCI -21
THF RVR FALLS  CLEAR     -6 -11  77 NW8       30.38R WCI -21
BAUDETTE       CLEAR     -5 -10  79 VRB3      30.32R
WASKISH        CLEAR      0  -8  71 NW9       30.33R WCI -16
CROOKSTON      CLEAR     -6  -9  84 N9        30.44R WCI -22
STEPHEN NDAWN    N/A     -8 -15  71 N5          N/A  WCI -19
GREENBUSH NDAW   N/A     -8 -13  77 NW10        N/A  WCI -26
$$
  *****  WEATHER ACROSS CENTRAL AND WEST MINNESOTA  *****

CITY           SKY/WX    TMP DP  RH WIND       PRES   REMARKS
FOSSTON        FAIR      -8 -11  84 CALM      30.36R
BEMIDJI        CLEAR     -4  -8  81 W7        30.31R WCI -18
PARK RAPIDS    CLEAR      4  -5  66 N8        30.29R WCI  -9
ELBOW LAKE     FAIR       9   3  78 N12       30.30R WCI  -6
WADENA         CLEAR      7   0  72 N5        30.29R WCI  -2
DETROIT LAKES  CLEAR      3  -2  78 N8        30.33R WCI -10
MOORHEAD       CLEAR      0  -4  85 N10G16    30.40R WCI -17
FERGUS FALLS   CLEAR      3  -2  78 N6        30.36R WCI  -8
MORRIS MN      PTCLDY    10   5  79 N13       30.28R WCI  -5
STAPLES        CLEAR      7  -2  66 N5        30.30R WCI  -2
$$
  *****  WEATHER ELSEWHERE ACROSS MINNESOTA  *****

CITY           SKY/WX    TMP DP  RH WIND       PRES   REMARKS
DULUTH         CLEAR      5  -5  63 NW8       30.23R WCI  -8
INTRNTL FALLS  CLEAR     -5 -12  72 NW8       30.30R WCI -20
ELY            CLEAR     -2  -8  78 CALM      30.24R
CLOQUET        CLEAR      3  -6  66 W5        30.26R WCI  -6
WHEATON        PTCLDY     3   0  85 N14       30.35S WCI -15
BRAINERD       CLEAR      7  -3  64 N6        30.30R WCI  -3
HIBBING        CLEAR     -2  -9  72 NW3       30.26R
ALEXANDRIA     CLEAR     12   1  61 NE8       30.27R WCI   0
SAINT CLOUD    CLEAR     14   3  61 N6        30.28R WCI   5
MINNEAPOLIS    PTCLDY    15   7  70 N7        30.28R WCI   5
$$

  *****  WEATHER ACROSS SOUTH DAKOTA  *****

CITY           SKY/WX    TMP DP  RH WIND       PRES   REMARKS
SIOUX FALLS    CLOUDY    20  16  84 E9        30.21R WCI   9
BROOKINGS      NOT AVBL
WATERTOWN      CLOUDY     6   1  80 NE10      30.22R WCI  -9
HURON          CLOUDY    16  13  88 NE6       30.25R WCI   7
SISSETON         N/A      5   0  79 N16       30.31S WCI -14
ABERDEEN       MOCLDY     6  -2  69 NE13      30.30R WCI -10
MITCHELL       CLOUDY    22  18  85 E8        30.22R WCI  12
PIERRE         LGT SNOW  18  15  88 E14       30.18R FOG     WCI   4
MOBRIDGE       CLOUDY    10   5  80 E9        30.22R WCI  -3
RAPID CITY     LGT SNOW  18  14  84 NE8       30.05R FOG     WCI   8
$$

  *****  SOME WEATHER IN NEARBY STATES *****

CITY           SKY/WX    TMP DP  RH WIND       PRES   REMARKS
GLASGOW MT     CLOUDY     9   1  70 NE14      30.32R WCI  -7
GREAT FALLS MT LGT SNOW  10   7  87 N16       30.26R FOG     WCI  -7
CHEYENNE WY    MOCLDY    23   8  52 W8        29.85R WCI  14
SCOTTSBLUFF NE MOCLDY    18  12  77 E6        29.93R WCI  10
OMAHA NE       CLOUDY    27  21  78 N9        30.17R WCI  18
DES MOINES IA  CLOUDY    31  22  69 NE8       30.18R WCI  23
DAVENPORT IA   CLEAR     25  18  74 CALM      30.20R
CHICAGO IL     CLEAR     29  16  58 W3        30.19R
EAU CLAIRE WI  FOG        7   4  87 N3        30.25S VSB 1
LA CROSSE WI   MOCLDY    22  15  75 N9        30.25R WCI  12
$$

  *****  SOME NATIONAL WEATHER *****

CITY           SKY/WX    TMP DP  RH WIND       PRES   REMARKS
LA GUARDIA NY  CLOUDY    46  34  62 NW12      29.99S
RALEIGH NC     MOCLDY    57  54  89 SW5       30.06R
ATLANTA GA     DRIZZLE   60  58  92 CALM      30.08S FOG
NEW ORLEANS LA LGT RAIN  58  55  90 N13       30.07R FOG
OKLAHOMA CITY  CLEAR     31  22  69 SE7       30.09S WCI  24
ALBUQUERQUE NM MOCLDY    30  13  49 SE3       30.07S
SALT LAKE CITY LGT SNOW  29  26  89 S3        30.06R FOG
LOS ANGELES CA PTCLDY    56  42  59 W8        30.18R
BOISE ID       CLOUDY    31  28  89 W5        30.08S
SEATTLE WA     CLOUDY    40  36  86 NE9       30.16F
$$

*** WEATHER ACROSS MANITOBA...SASKATCHEWAN AND ONTARIO ***
                ***ONTARIO***

CITY           SKY/WX    TMP DP  RH WIND       PRES   REMARKS
GERALDTON      CLEAR     -8 -13  77 W10       30.10R WCI -26
THUNDER BAY    NOT AVBL
SIOUX LOOKOUT  CLEAR    -11 -17  77 NW9       30.24R WCI -29
TORONTO        PTCLDY    30  21  69 W10       30.09R WCI  21
BIG TROUT LK   CLEAR    -20 -26  76 W13       30.13R WCI -43
PICKLE LAKE    CRYSTALS -15 -20  76 W13G18    30.13R WCI -37
DRYDEN         CLEAR    -13 -17  84 W8        30.26R WCI -30
KENORA         CRYSTALS -11 -17  77 NW7       30.31R WCI -26
$$
                *** MANITOBA***

CITY           SKY/WX    TMP DP  RH WIND       PRES   REMARKS
BRANDON        CLEAR    -15 -20  76 NW7       30.44R WCI -31
DAUPHIN        CLEAR    -22 -27  76 W7        30.51R WCI -39
ISLAND LAKE    CLEAR    -18 -24  76 W13       30.31R WCI -41
PILOT MOUND      N/A    -13 -17  84 NW8         N/A  WCI -30
THE PAS        PTCLDY   -18 -24  76 NW10      30.55R WCI -39
THOMPSON       PTCLDY   -18 -26  69 NW9       30.40S WCI -38
WINNIPEG       CLEAR    -17 -22  76 NW9       30.47R WCI -36
$$
                ***SASKATCHEWAN***

CITY           SKY/WX    TMP DP  RH WIND       PRES   REMARKS
ESTEVAN        CLOUDY    -6 -11  77 NW5       30.39R WCI -17
KINDERSLEY     PTCLDY   -13 -18  77 NE5       30.49R WCI -25
LLOYDMINSTER   CLOUDY    -9 -15  77 W6        30.51R WCI -23
PRINCE ALBERT  PTCLDY   -17 -22  76 W6        30.58R WCI -31
REGINA         NOT AVBL
YORKTON        CLEAR    -17 -22  76 NW12      30.46R WCI -38
N. BATTLEFORD  CLEAR    -15 -20  76 NW2       30.58R
LA RONGE       NOT AVBL
SASKATOON      PTCLDY   -15 -20  76 NW6       30.57R WCI -29
SWIFT CURRENT  CLEAR     -8 -11  84 N6        30.40R WCI -21
$$
NOTE: THESE ARE AUTOMATED STATIONS WITH LIMITED QUALITY CONTROL
      "FAIR" INDICATES FEW OR NO CLOUDS BELOW 12,000 FEET WITH NO
      SIGNIFICANT WEATHER AND/OR OBSTRUCTIONS TO VISIBILITY.
      SKY/WX - SKY CONDITION AND SIGNIFICANT WEATHER.
      TMP - AIR TEMPERATURE.    DP   - DEWPOINT TEMPERATURE.
      RH  - RELATIVE HUMIDITY.  PRES - PRESSURE.
      HX  - HEAT INDEX.         WCI  - WIND CHILL INDEX.
$



USA.gov is the U.S. government's official web portal to all federal, state and local government web resources and services.